Location: Unspecified
(43.4680°N, 87.1740°E)
Time: 10:07:23
(UTC+00:00)

Cosmos 1812 Rocket - Pass Details

Date: 17 January 2020
Orbit: 606 x 631 km, 82.5° (Epoch: 16 February)

Event Time Altitude Azimuth Distance (km) Brightness Sun altitude
Rises 12:13:55 0° 356° (N) 2,922 6.9 -12.9°
Reaches altitude 10° 12:16:13 10° 2° (N) 2,014 6.0 -13.3°
Maximum altitude 12:20:34 51° 78° (ENE) 800 3.7 -14.0°
Drops below altitude 10° 12:24:54 10° 155° (SSE) 2,006 6.1 -14.8°
Sets 12:27:11 0° 160° (SSE) 2,909 7.0 -15.2°
